Regional Weather Roundup
Issued by NWS Upton, NY

Current Version | Previous Version | Text Only | Print | Product List | Glossary On
Versions: 1 2 3 4 5 6 7 8 9 10 11 12 13 14 15 16 17 18 19 20 21 22 23 24 25 26 27 28 29 30 31 32 33 34 35 36 37 38 39 40 41 42 43 44 45 46 47 48 49 50
000 ASUS41 KOKX 300904 RWROKX REGIONAL WEATHER ROUNDUP NATIONAL WEATHER SERVICE NEW YORK NY 500 AM EDT SUN AUG 30 2015 NOTE: "FAIR" INDICATES FEW OR NO CLOUDS BELOW 12,000 FEET WITH NO SIGNIFICANT WEATHER AND/OR OBSTRUCTIONS TO VISIBILITY. NYZ071-072-176-178-NJZ106-104-301000- NEW YORK CITY METRO AREA CITY SKY/WX TMP DP RH WIND PRES REMARKS CENTRAL PARK CLEAR 73 60 63 VRB6 30.12R LAGUARDIA APRT MOCLDY 73 61 65 SW7 30.08R KENNEDY INTL PTCLDY 71 64 78 SW8 30.10S NEWARK/LIBERTY MOCLDY 70 61 73 SW7 30.09R BRNX BOT. GARD N/A 72 61 68 SW13 30.10F TETERBORO CLEAR 68 59 73 S3 30.08R $$ NYZ177-179-078>081-301000- LONG ISLAND NEW YORK CITY SKY/WX TMP DP RH WIND PRES REMARKS FARMINGDALE PTCLDY 70 62 76 SW6 30.09S ISLIP CLEAR 69 62 78 SW5 30.07S SHIRLEY PTCLDY 72 63 73 SW5 30.09F WESTHAMPTON PTCLDY 73 66 78 SW6 30.10S MONTAUK POINT N/A 73 67 81 SW5 30.10S $$ NYZ052-065-067-301000- HUDSON VALLEY CITY SKY/WX TMP DP RH WIND PRES REMARKS WHITE PLAINS CLEAR 65 60 84 CALM 30.09R NEWBURGH NOT AVBL MONTGOMERY CLEAR 61 60 97 S5 30.08S FOG POUGHKEEPSIE CLEAR 62 59 90 CALM 30.06S ALBANY MOCLDY 62 58 86 CALM 30.07S $$ NJZ001-105-106-008-010-013-015-019>022-104-301000- NEW JERSEY CITY SKY/WX TMP DP RH WIND PRES REMARKS NEWARK/LIBERTY MOCLDY 70 61 73 SW7 30.09R TETERBORO CLEAR 68 59 73 S3 30.08R CALDWELL CLEAR 66 60 81 CALM 30.10R MORRISTOWN FOG 57 52 82 CALM 30.10R VSB 1/2 SOMERVILLE CLEAR 60 57 89 CALM 30.08S SUSSEX FOG 58 57 97 CALM 30.10R VSB 1/4 ANDOVER N/A 60 59 96 CALM 30.11R TRENTON PTCLDY 68 62 81 CALM 30.10S MILLVILLE CLEAR 62 60 93 CALM 30.11F ATLANTIC CITY PTCLDY 65 61 87 CALM 30.10F WRIGHTSTOWN PTCLDY 65 63 93 SW2 30.08F TOMS RIVER CLEAR 63 57 82 CALM 30.11S BELMAR PTCLDY 66 57 72 W5 30.10F $$ PAZ047>061-062-071-301000- EASTERN PENNSYLVANIA CITY SKY/WX TMP DP RH WIND PRES REMARKS PHILADELPHIA PTCLDY 71 62 73 S6 30.11S ALLENTOWN CLEAR 62 60 93 CALM 30.10S FOG SCRANTON CLEAR 63 59 87 E5 30.09S $$ CTZ002-004>006-009-010-012-RIZ004-006-007-MAZ004-011-015-301000- SOUTHERN NEW ENGLAND IN CT CITY SKY/WX TMP DP RH WIND PRES REMARKS BRADLEY INTL CLEAR 65 61 87 S5 30.06S HARTFORD CLEAR 65 63 93 CALM 30.07R DANBURY CLEAR 63 59 87 CALM 30.10R WTRBRY/OXFORD CLEAR 63 55 77 CALM 30.10S BRIDGEPORT CLEAR 72 64 76 W3 30.08R MERIDEN CLEAR 61 58 90 CALM 30.07S FOG NEW HAVEN CLEAR 73 64 73 SW6 30.08S CHESTER NOT AVBL GROTON CLOUDY 72 68 87 SW7 30.07F WILLIMANTIC CLEAR 60 57 89 CALM 30.09R IN RI CITY SKY/WX TMP DP RH WIND PRES REMARKS PROVIDENCE CLEAR 67 63 87 SW6 30.08S BLOCK ISLAND PTCLDY 70 66 88 SW9 30.09S WESTERLY CLEAR 62 60 93 CALM 30.08F IN MA CITY SKY/WX TMP DP RH WIND PRES REMARKS BOSTON MOCLDY 70 61 73 SW10 30.05F WORCESTER CLEAR 61 58 90 SW10 30.09S WESTFIELD CLEAR 61 59 93 CALM 30.07S PROVINCETOWN PTCLDY 66 59 77 SW8 30.07S NANTUCKET MOCLDY 67 64 90 SW6 30.09F $$ ANZ330-335-338-340-345-350-353-355-301000- COASTAL MARINE OBSERVATIONS STATION/POSITION TIME SKY/WX TEMP WIND PRES VSBY WAVE AIR SEA DIR/SP/G HT/PER (UTC) (F) (DEG/KT/KT) (MB) (MI) (FT/S) NY HARB ENTRANCE 0750 74 75 240/ 12/ 16 1018.8 3/11 4S FIRE IS NOT AVBL 20S FIRE ISLAND 0750 74 74 250/ 10/ 12 1019.1 3/10 GREAT SOUTH BAY 0800 74 78 250/ 14/ 17 N/A 23SW MTP 0850 74 73 250/ 10/ 14 1018.6 3/11 HUDSON CANYON NOT AVBL KINGS POINT NOT AVBL EXECUTION ROCKS 0800 74 220/ 8/ 10 N/A CENTRAL LI SOUND NOT AVBL EASTERN LI SOUND 0800 72 70 240/ 8/ 10 N/A ROBBINS REEF NOT AVBL $$ >>>>>>>>>>>>>>>>>>>>>>>>>>>> KEY <<<<<<<<<<<<<<<<<<<<<<<<<<< > < > SKY/WX - SKY CONDITION/PRESENT WEATHER < > TMP - TEMPERATURE IN FAHRENHEIT < > DP - DEWPOINT IN FAHRENHEIT < > RH - RELATIVE HUMIDITY IN PERCENT < > WIND - DIRECTION AND SPEED IN MPH < > PRES - MEAN SEA LEVEL PRESSURE IN INCHES OF HG < > WCI - WIND CHILL INDEX < > VSB - VISIBILITY IN MILES < > HX - HEAT INDEX < > TC - TEMPERATURE IN CELSIUS < > VRB - VARIABLE WIND DIRECTION < > < >>>>>>>>>>>>>>>>>>>>>>>>>>>> KEY <<<<<<<<<<<<<<<<<<<<<<<<<<<

USA.gov is the U.S. government's official web portal to all federal, state and local government web resources and services.